This is the latest recevied weather packets stored in our database for station/object N4LLZ-13. If no packets are shown the sender has not sent any weather packets the latest 10 day(s).
| Time | Temp. | Humidity | Pressure | Rain* | Wind** | Luminosity | Snow |
|---|---|---|---|---|---|---|---|
| 1787528032 | 27.78° C | 58% | 1013.9 hPa | 0 mm | - | - | - |
| 1787527731 | 28.33° C | 53% | 1013.9 hPa | 0 mm | - | - | - |
| 1787527430 | 28.89° C | 50% | 1013.8 hPa | 0 mm | - | - | - |
| 1787527129 | 28.89° C | 47% | 1013.8 hPa | 0 mm | - | - | - |
| 1787526828 | 28.89° C | 46% | 1013.8 hPa | 0 mm | - | - | - |
| 1787526527 | 28.89° C | 46% | 1013.8 hPa | 0 mm | - | - | - |
| 1787526226 | 29.44° C | 46% | 1013.8 hPa | 0 mm | - | - | - |
| 1787525925 | 29.44° C | 45% | 1013.8 hPa | 0 mm | - | - | - |
| 1787525624 | 29.44° C | 45% | 1013.8 hPa | 0 mm | - | - | - |
| 1787525323 | 30° C | 46% | 1013.8 hPa | 0 mm | - | - | - |
| 1787525023 | 30° C | 45% | 1013.8 hPa | 0 mm | - | - | - |
| 1787524722 | 30° C | 44% | 1013.8 hPa | 0 mm | - | - | - |
| 1787524421 | 30.56° C | 44% | 1013.8 hPa | 0 mm | - | - | - |
| 1787524120 | 30.56° C | 43% | 1013.8 hPa | 0 mm | - | - | - |
| 1787523819 | 31.11° C | 41% | 1013.7 hPa | 0 mm | - | - | - |
| 1787523518 | 31.11° C | 41% | 1013.6 hPa | 0 mm | - | - | - |
| 1787523218 | 31.11° C | 41% | 1013.6 hPa | 0 mm | - | - | - |
| 1787522917 | 31.11° C | 40% | 1013.6 hPa | 0 mm | - | - | - |
| 1787522617 | 31.67° C | 40% | 1013.6 hPa | 0 mm | - | - | - |
| 1787522315 | 31.67° C | 39% | 1013.6 hPa | 0 mm | - | - | - |
| 1787522016 | 31.67° C | 39% | 1013.6 hPa | 0 mm | - | - | - |
| 1787521713 | 31.67° C | 40% | 1013.5 hPa | 0 mm | - | - | - |
| 1787521412 | 31.67° C | 39% | 1013.4 hPa | 0 mm | - | - | - |
| 1787521111 | 31.11° C | 39% | 1013.3 hPa | 0 mm | - | - | - |
| 1787520810 | 31.11° C | 40% | 1013.3 hPa | 0 mm | - | - | - |
* Rain latest hour (hover to see other rain measurements)
** Current wind speed in m/s (hover to see current wind gust speed)